^^
Grace C. Lehan Memorial Weather Station Historical Data
Daily Summary for May 21, 2022 Units:  Metric    English   Both
Daily Weekly Monthly Yearly
  High: Low: Average:
Temperature: 32.4 °C 17.3 °C 23.8 °C
Dew Point: 23.8 °C 16.3 °C 19.9 °C
Humidity: 96% 51.7% 81%
Wind Speed: 3.4km/h 0km/h 0.2km/h
Wind Gust: 19.3km/h - -
Wind- - South
Pressure: 1015.8 hPa 1012.4 hPa -
Precipitation: 0.25 mm    
 
 
Tabular Data for May 21, 2022
Time Temperature Dew Point Pressure Wind Wind Speed Wind Gust Humidity Rainfall Rate (Hourly) solar
00:00 17.3 °C 16.3 °C 1014.1 hPa Calm   4.8 km/h 94% 0 mm 0 W/m2
00:09 17.3 °C 16.3 °C 1014.4 hPa Calm     94% 0 mm 0 W/m2
00:14 17.3 °C 16.3 °C 1014.4 hPa Calm     94% 0 mm 0 W/m2
00:19 17.3 °C 16.3 °C 1014.1 hPa Calm     94% 0 mm 0 W/m2
00:24 17.3 °C 16.3 °C 1014.1 hPa Calm     94% 0 mm 0 W/m2
00:29 17.3 °C 16.3 °C 1014.1 hPa Calm     94% 0 mm 0 W/m2
00:34 17.3 °C 16.3 °C 1014.1 hPa Calm     94% 0 mm 0 W/m2
00:39 17.3 °C 16.3 °C 1014.1 hPa Calm     94% 0 mm 0 W/m2
00:44 17.3 °C 16.4 °C 1014.1 hPa Calm     94% 0 mm 0 W/m2
00:49 17.3 °C 16.4 °C 1014.1 hPa Calm     94% 0 mm 0 W/m2
00:54 17.3 °C 16.4 °C 1013.8 hPa Calm     94% 0 mm 0 W/m2
00:59 17.3 °C 16.4 °C 1013.8 hPa Calm     94% 0 mm 0 W/m2
01:04 17.4 °C 16.4 °C 1013.8 hPa Calm     94% 0 mm 0 W/m2
01:09 17.4 °C 16.4 °C 1013.8 hPa Calm     94% 0 mm 0 W/m2
01:14 17.4 °C 16.4 °C 1013.8 hPa Calm     94% 0 mm 0 W/m2
01:19 17.4 °C 16.4 °C 1013.8 hPa Calm     94% 0 mm 0 W/m2
01:24 17.3 °C 16.4 °C 1013.8 hPa Calm     94% 0 mm 0 W/m2
01:29 17.3 °C 16.4 °C 1013.4 hPa Calm     94% 0 mm 0 W/m2
01:34 17.3 °C 16.4 °C 1013.4 hPa Calm     94% 0 mm 0 W/m2
01:39 17.3 °C 16.5 °C 1013.4 hPa Calm     94.9% 0 mm 0 W/m2
01:44 17.4 °C 16.6 °C 1013.4 hPa Calm     95% 0 mm 0 W/m2
01:49 17.4 °C 16.6 °C 1013.4 hPa Calm     95% 0 mm 0 W/m2
01:54 17.4 °C 16.7 °C 1013.4 hPa Calm     95% 0 mm 0 W/m2
01:59 17.4 °C 16.7 °C 1013.4 hPa Calm     95% 0 mm 0 W/m2
02:04 17.5 °C 16.7 °C 1013.4 hPa Calm     95% 0 mm 0 W/m2
02:09 17.5 °C 16.7 °C 1013.4 hPa Calm     95% 0 mm 0 W/m2
02:14 17.5 °C 16.7 °C 1013.1 hPa Calm     95% 0 mm 0 W/m2
02:19 17.5 °C 16.7 °C 1013.1 hPa Calm     95% 0 mm 0 W/m2
02:24 17.5 °C 16.7 °C 1013.4 hPa Calm     95% 0 mm 0 W/m2
02:29 17.5 °C 16.7 °C 1013.1 hPa Calm     95% 0 mm 0 W/m2
02:34 17.6 °C 16.7 °C 1013.1 hPa Calm     95% 0 mm 0 W/m2
02:39 17.6 °C 16.7 °C 1013.1 hPa Calm     95% 0 mm 0 W/m2
02:44 17.6 °C 16.7 °C 1013.1 hPa Calm     95% 0.25 mm 0 W/m2
02:49 17.6 °C 16.7 °C 1013.1 hPa Calm     95% 0.25 mm 0 W/m2
02:54 17.6 °C 16.7 °C 1013.1 hPa Calm     95% 0.25 mm 0 W/m2
02:59 17.5 °C 16.7 °C 1013.1 hPa Calm     95% 0.25 mm 0 W/m2
03:04 17.5 °C 16.7 °C 1013.1 hPa Calm     95% 0.25 mm 0 W/m2
03:09 17.6 °C 16.7 °C 1013.1 hPa Calm     95% 0.25 mm 0 W/m2
03:14 17.6 °C 16.7 °C 1013.1 hPa Calm     95% 0.25 mm 0 W/m2
03:19 17.5 °C 16.7 °C 1013.1 hPa Calm     95% 0.25 mm 0 W/m2
03:24 17.6 °C 16.7 °C 1013.1 hPa Calm     95% 0.25 mm 0 W/m2
03:28 17.6 °C 16.8 °C 1013.1 hPa Calm     95% 0.25 mm 0 W/m2
03:34 17.6 °C 16.8 °C 1012.8 hPa Calm     95% 0.25 mm 0 W/m2
03:39 17.6 °C 16.8 °C 1012.8 hPa Calm     95% 0.25 mm 0 W/m2
03:44 17.6 °C 16.8 °C 1012.8 hPa Calm     95% 0.25 mm 0 W/m2
03:49 17.6 °C 16.8 °C 1012.8 hPa Calm     95% 0.25 mm 0 W/m2
03:54 17.6 °C 16.8 °C 1012.8 hPa Calm     95% 0.25 mm 0 W/m2
03:59 17.6 °C 16.8 °C 1012.8 hPa Calm     95% 0.25 mm 0 W/m2
04:00 17.6 °C 16.8 °C 1012.8 hPa Calm     95% 0.25 mm 0 W/m2
04:09 17.6 °C 16.8 °C 1012.8 hPa Calm     95% 0 mm 0 W/m2
04:14 17.7 °C 16.8 °C 1012.8 hPa Calm     95% 0 mm 0 W/m2
04:19 17.7 °C 16.8 °C 1012.4 hPa Calm     95% 0 mm 0 W/m2
04:24 17.7 °C 16.8 °C 1012.4 hPa Calm     95% 0 mm 0 W/m2
04:29 17.7 °C 16.8 °C 1012.4 hPa Calm     95% 0 mm 0 W/m2
04:34 17.7 °C 16.8 °C 1012.4 hPa Calm     95% 0 mm 0 W/m2
04:39 17.7 °C 16.8 °C 1012.4 hPa Calm     95% 0 mm 0 W/m2
04:44 17.7 °C 16.9 °C 1012.4 hPa Calm     95.3% 0 mm 0 W/m2
04:49 17.7 °C 17 °C 1012.4 hPa Calm     95.9% 0 mm 0 W/m2
04:54 17.7 °C 17 °C 1012.4 hPa Calm     96% 0 mm 0 W/m2
04:59 17.7 °C 17 °C 1012.4 hPa Calm     96% 0 mm 0 W/m2
05:04 17.7 °C 17 °C 1012.4 hPa Calm     96% 0 mm 0 W/m2
05:09 17.7 °C 17.1 °C 1012.4 hPa Calm     96% 0 mm 0 W/m2
05:14 17.7 °C 17.1 °C 1012.8 hPa Calm     96% 0 mm 0 W/m2
05:19 17.8 °C 17.1 °C 1012.8 hPa Calm     96% 0 mm 0 W/m2
05:24 17.8 °C 17.1 °C 1012.8 hPa Calm     96% 0 mm 0 W/m2
05:29 17.8 °C 17.1 °C 1012.8 hPa Calm     96% 0 mm 0 W/m2
05:34 17.8 °C 17.2 °C 1012.8 hPa Calm     96% 0 mm 0 W/m2
05:36 17.8 °C 17.1 °C 1012.8 hPa Calm     96% 0 mm 0 W/m2
06:00 17.8 °C 17.2 °C 1013.1 hPa Calm     96% 0 mm 4 W/m2
06:30 17.9 °C 17.2 °C 1013.4 hPa Calm     96% 0 mm 22 W/m2
07:00 17.9 °C 17.3 °C 1013.8 hPa Calm     96% 0 mm 37 W/m2
07:30 18 °C 17.3 °C 1014.4 hPa Calm     96% 0 mm 29 W/m2
08:04 18.2 °C 17.5 °C 1014.4 hPa Calm     96% 0 mm 51 W/m2
08:09 18.2 °C 17.5 °C 1014.8 hPa Calm     96% 0 mm 58 W/m2
08:14 18.2 °C 17.6 °C 1014.8 hPa Calm     96% 0 mm 65 W/m2
08:19 18.2 °C 17.6 °C 1014.8 hPa Calm     96% 0 mm 76 W/m2
08:24 18.2 °C 17.6 °C 1014.8 hPa Calm     96% 0 mm 86 W/m2
08:29 18.2 °C 17.6 °C 1014.8 hPa Calm     96% 0 mm 90 W/m2
08:34 18.2 °C 17.6 °C 1014.8 hPa Calm     96% 0 mm 86 W/m2
08:39 18.3 °C 17.7 °C 1014.8 hPa Calm     96% 0 mm 72 W/m2
08:44 18.3 °C 17.7 °C 1014.8 hPa Calm     96% 0 mm 65 W/m2
08:49 18.3 °C 17.7 °C 1014.8 hPa Calm     96% 0 mm 130 W/m2
08:54 18.4 °C 17.7 °C 1015.1 hPa Calm     96% 0 mm 148 W/m2
08:59 18.4 °C 17.8 °C 1015.1 hPa Calm     96% 0 mm 163 W/m2
09:04 18.5 °C 17.8 °C 1015.1 hPa Calm     96% 0 mm 204 W/m2
09:09 18.6 °C 18 °C 1015.5 hPa Calm     96% 0 mm 206 W/m2
09:14 18.7 °C 18.1 °C 1015.5 hPa Calm     96% 0 mm 214 W/m2
09:19 18.7 °C 18.1 °C 1015.5 hPa Calm     96% 0 mm 128 W/m2
09:24 18.7 °C 18.1 °C 1015.5 hPa Calm     96% 0 mm 134 W/m2
09:29 18.8 °C 18.1 °C 1015.5 hPa Calm     96% 0 mm 278 W/m2
09:34 18.9 °C 18.2 °C 1015.5 hPa Calm     96% 0 mm 306 W/m2
09:39 19.1 °C 18.4 °C 1015.5 hPa Calm     96% 0 mm 406 W/m2
09:44 19.3 °C 18.7 °C 1015.5 hPa Calm     96% 0 mm 396 W/m2
09:49 19.4 °C 18.8 °C 1015.5 hPa Calm     96% 0 mm 325 W/m2
09:54 19.5 °C 18.8 °C 1015.5 hPa Calm     96% 0 mm 274 W/m2
09:59 19.5 °C 18.8 °C 1015.5 hPa Calm     96% 0 mm 274 W/m2
10:04 19.6 °C 18.9 °C 1015.5 hPa Calm     95.7% 0 mm 232 W/m2
10:09 19.8 °C 19.1 °C 1015.5 hPa Calm     95.5% 0 mm 204 W/m2
10:14 19.9 °C 19.1 °C 1015.5 hPa Calm     95.1% 0 mm 248 W/m2
10:19 20 °C 19.2 °C 1015.5 hPa Calm     95% 0 mm 287 W/m2
10:24 20.1 °C 19.3 °C 1015.5 hPa Calm     95% 0 mm 315 W/m2
10:29 20.3 °C 19.4 °C 1015.5 hPa Calm     94.5% 0 mm 309 W/m2
10:34 20.4 °C 19.4 °C 1015.5 hPa Calm     94% 0 mm 550 W/m2
10:39 20.7 °C 19.7 °C 1015.5 hPa Calm     94% 0 mm 550 W/m2
10:44 20.9 °C 19.9 °C 1015.8 hPa Calm     93.8% 0 mm 309 W/m2
10:49 21.1 °C 19.9 °C 1015.8 hPa Calm     92.7% 0 mm 341 W/m2
10:54 21.2 °C 19.8 °C 1015.8 hPa Calm     91.8% 0 mm 350 W/m2
10:59 21.4 °C 19.9 °C 1015.8 hPa Calm     91.3% 0 mm 506 W/m2
11:04 21.6 °C 20.1 °C 1015.8 hPa Calm   1.6 km/h 91.1% 0 mm 599 W/m2
11:09 21.8 °C 20.2 °C 1015.8 hPa Calm   1.6 km/h 90.7% 0 mm 431 W/m2
11:14 22.1 °C 20.3 °C 1015.8 hPa Calm   1.6 km/h 90% 0 mm 540 W/m2
11:19 22.3 °C 20.6 °C 1015.8 hPa Calm   1.6 km/h 89.5% 0 mm 708 W/m2
11:24 22.6 °C 20.6 °C 1015.8 hPa Calm   1.6 km/h 88.4% 0 mm 510 W/m2
11:29 22.9 °C 20.7 °C 1015.8 hPa Calm   1.6 km/h 87.4% 0 mm 731 W/m2
11:34 23.3 °C 21.1 °C 1015.8 hPa Calm   1.6 km/h 87.4% 0 mm 977 W/m2
11:39 23.8 °C 21.6 °C 1015.8 hPa Calm   1.6 km/h 87.3% 0 mm 944 W/m2
11:44 24.3 °C 21.7 °C 1015.8 hPa Calm   1.6 km/h 85.6% 0 mm 914 W/m2
11:49 24.6 °C 21.6 °C 1015.8 hPa Calm   1.6 km/h 83.2% 0 mm 928 W/m2
11:54 24.8 °C 21.5 °C 1015.8 hPa Calm   1.6 km/h 82.1% 0 mm 937 W/m2
11:59 24.9 °C 21.5 °C 1015.8 hPa Calm   1.6 km/h 81.4% 0 mm 937 W/m2
12:04 25.1 °C 21.4 °C 1015.5 hPa Calm     80% 0 mm 898 W/m2
12:09 25.2 °C 21.7 °C 1015.5 hPa Calm     80.9% 0 mm 909 W/m2
12:14 25.5 °C 21.9 °C 1015.5 hPa Calm     80.5% 0 mm 872 W/m2
12:19 25.8 °C 21.9 °C 1015.5 hPa Calm     79% 0 mm 791 W/m2
12:24 25.9 °C 21.8 °C 1015.1 hPa Calm     78% 0 mm 838 W/m2
12:29 26 °C 21.7 °C 1015.1 hPa Calm     76.9% 0 mm 926 W/m2
12:34 26.2 °C 22.1 °C 1015.1 hPa WNW 0.3 km/h 3.2 km/h 78.3% 0 mm 942 W/m2
12:39 26.4 °C 22.2 °C 1014.8 hPa Calm   3.2 km/h 77.7% 0 mm 919 W/m2
12:44 26.6 °C 21.8 °C 1014.8 hPa Calm   3.2 km/h 75.3% 0 mm 951 W/m2
12:49 26.7 °C 22.1 °C 1014.8 hPa Calm   3.2 km/h 75.7% 0 mm 951 W/m2
12:54 26.8 °C 22.2 °C 1014.4 hPa Calm   3.2 km/h 75.7% 0 mm 949 W/m2
12:59 26.9 °C 22.1 °C 1014.4 hPa Calm   3.2 km/h 75.1% 0 mm 963 W/m2
13:04 27.1 °C 22.4 °C 1014.4 hPa North 0.3 km/h 4.8 km/h 75.7% 0 mm 958 W/m2
13:09 27.4 °C 22.4 °C 1014.4 hPa Calm   4.8 km/h 74.3% 0 mm 949 W/m2
13:14 27.6 °C 22.7 °C 1014.4 hPa Calm   4.8 km/h 74.4% 0 mm 946 W/m2
13:19 27.9 °C 23.1 °C 1014.4 hPa Calm   4.8 km/h 75% 0 mm 940 W/m2
13:24 28.2 °C 22.7 °C 1014.4 hPa Calm   4.8 km/h 72.4% 0 mm 940 W/m2
13:29 28.2 °C 22.7 °C 1014.4 hPa NW 0.8 km/h 6.4 km/h 71.9% 0 mm 935 W/m2
13:34 28.4 °C 22.8 °C 1014.4 hPa Calm   6.4 km/h 71.8% 0 mm 933 W/m2
13:39 28.6 °C 23.1 °C 1014.4 hPa Calm     72.3% 0 mm 933 W/m2
13:44 28.8 °C 23.1 °C 1014.4 hPa NW 0.3 km/h 4.8 km/h 71.3% 0 mm 928 W/m2
13:49 29 °C 23.2 °C 1014.4 hPa NNW 1.1 km/h 6.4 km/h 70.8% 0 mm 923 W/m2
13:54 29.3 °C 23.1 °C 1014.4 hPa Calm   6.4 km/h 69.3% 0 mm 918 W/m2
13:59 29.6 °C 23.3 °C 1014.4 hPa NNE 0.3 km/h 6.4 km/h 69.2% 0 mm 914 W/m2
14:04 29.9 °C 23.4 °C 1014.4 hPa NE 0.2 km/h 6.4 km/h 68% 0 mm 905 W/m2
14:09 30.1 °C 23.2 °C 1014.4 hPa NE 0.2 km/h 4.8 km/h 66.6% 0 mm 904 W/m2
14:14 30.2 °C 23.6 °C 1014.1 hPa Calm   4.8 km/h 67.9% 0 mm 898 W/m2
14:19 30.4 °C 23.7 °C 1014.1 hPa Calm   4.8 km/h 67.6% 0 mm 891 W/m2
14:24 30.6 °C 23.8 °C 1014.1 hPa Calm   4.8 km/h 67.4% 0 mm 889 W/m2
14:29 30.7 °C 23.7 °C 1013.8 hPa Calm   4.8 km/h 66.6% 0 mm 882 W/m2
14:34 30.7 °C 23.4 °C 1014.1 hPa Calm   4.8 km/h 65.1% 0 mm 875 W/m2
14:39 30.8 °C 23.6 °C 1014.1 hPa Calm     65.6% 0 mm 867 W/m2
14:44 30.8 °C 23.5 °C 1013.8 hPa NE 0.2 km/h 3.2 km/h 64.9% 0 mm 860 W/m2
14:49 30.9 °C 23.6 °C 1013.8 hPa Calm   3.2 km/h 65.4% 0 mm 849 W/m2
14:54 31 °C 23.7 °C 1013.8 hPa NE 0.2 km/h 3.2 km/h 65.1% 0 mm 842 W/m2
14:59 31.1 °C 23.3 °C 1013.4 hPa NE 0.3 km/h 3.2 km/h 63.7% 0 mm 837 W/m2
15:04 31.1 °C 23.4 °C 1013.4 hPa Calm   3.2 km/h 63.6% 0 mm 828 W/m2
15:09 31.3 °C 23.5 °C 1013.4 hPa NE 0.3 km/h 4.8 km/h 63.5% 0 mm 817 W/m2
15:14 31.4 °C 23.4 °C 1013.4 hPa Calm   4.8 km/h 62.7% 0 mm 803 W/m2
15:19 31.4 °C 23.4 °C 1013.4 hPa Calm   4.8 km/h 62.6% 0 mm 795 W/m2
15:24 31.6 °C 23.8 °C 1013.4 hPa Calm   4.8 km/h 63.3% 0 mm 780 W/m2
15:29 31.7 °C 23.4 °C 1013.4 hPa Calm   4.8 km/h 61.4% 0 mm 768 W/m2
15:34 31.9 °C 23.6 °C 1013.4 hPa NW 0.2 km/h 6.4 km/h 61.6% 0 mm 759 W/m2
15:39 32.1 °C 23.4 °C 1013.4 hPa WSW 1.1 km/h 8 km/h 60.1% 0 mm 742 W/m2
15:44 32.3 °C 23.1 °C 1013.4 hPa WSW 0.2 km/h 8 km/h 58.6% 0 mm 724 W/m2
15:49 32.3 °C 22.8 °C 1013.4 hPa SW 0.6 km/h 8 km/h 57.2% 0 mm 710 W/m2
15:54 32.3 °C 22.8 °C 1013.1 hPa Calm   8 km/h 57.2% 0 mm 689 W/m2
15:59 32.4 °C 23.1 °C 1013.1 hPa Calm   8 km/h 58% 0 mm 679 W/m2
16:09 32.4 °C 23 °C 1013.1 hPa SSE 0.5 km/h 3.2 km/h 57.7% 0 mm 649 W/m2
16:14 32.3 °C 23.1 °C 1013.1 hPa South 0.6 km/h 6.4 km/h 58.5% 0 mm 90 W/m2
16:19 32.2 °C 23.2 °C 1013.1 hPa South 0.2 km/h 6.4 km/h 59.1% 0 mm 88 W/m2
16:24 32.2 °C 23.4 °C 1013.1 hPa South 0.8 km/h 6.4 km/h 59.8% 0 mm 86 W/m2
16:29 32.1 °C 23.4 °C 1013.1 hPa South 0.2 km/h 6.4 km/h 60% 0 mm 83 W/m2
16:34 32.1 °C 23.5 °C 1013.1 hPa Calm   6.4 km/h 60.4% 0 mm 81 W/m2
16:39 32.2 °C 23.6 °C 1013.1 hPa SSW 1.1 km/h 8 km/h 60.6% 0 mm 79 W/m2
16:44 32.3 °C 23.2 °C 1013.1 hPa SSW 0.5 km/h 8 km/h 58.8% 0 mm 77 W/m2
16:49 32.3 °C 22.3 °C 1013.1 hPa SSW 1.1 km/h 8 km/h 55.6% 0 mm 74 W/m2
16:54 32.3 °C 22.3 °C 1013.1 hPa SW 1.6 km/h 8 km/h 55.5% 0 mm 70 W/m2
16:59 32.3 °C 21.7 °C 1013.1 hPa South 1.1 km/h 9.7 km/h 53.4% 0 mm 69 W/m2
17:04 32.3 °C 21.2 °C 1013.1 hPa South 3.4 km/h 9.7 km/h 51.9% 0 mm 67 W/m2
17:09 32.2 °C 21.1 °C 1013.1 hPa South 1.8 km/h 19.3 km/h 51.7% 0 mm 65 W/m2
17:14 32.2 °C 21.3 °C 1013.1 hPa South 1.3 km/h 19.3 km/h 52.7% 0 mm 63 W/m2
17:19 32.1 °C 21.4 °C 1013.1 hPa SSW 0.5 km/h 19.3 km/h 53.4% 0 mm 62 W/m2
17:24 32 °C 21.4 °C 1013.1 hPa SSW 2.4 km/h 19.3 km/h 53.5% 0 mm 60 W/m2
17:29 31.9 °C 21.6 °C 1013.1 hPa SSW 2.1 km/h 19.3 km/h 54.5% 0 mm 60 W/m2
17:34 31.7 °C 21.6 °C 1013.1 hPa SSW 1 km/h 19.3 km/h 55.1% 0 mm 58 W/m2
17:39 31.6 °C 21.7 °C 1013.4 hPa SSW 0.5 km/h 4.8 km/h 56% 0 mm 58 W/m2
17:44 31.5 °C 21.9 °C 1013.4 hPa SSW 0.3 km/h 4.8 km/h 56.8% 0 mm 56 W/m2
17:49 31.4 °C 21.9 °C 1013.4 hPa SSW 0.6 km/h 4.8 km/h 57.2% 0 mm 56 W/m2
17:54 31.4 °C 22.2 °C 1013.4 hPa SSW 1 km/h 6.4 km/h 58% 0 mm 54 W/m2
17:59 31.3 °C 22.3 °C 1013.4 hPa SSW 0.3 km/h 6.4 km/h 58.7% 0 mm 54 W/m2
18:04 31.2 °C 22.3 °C 1013.4 hPa SSW 2.3 km/h 9.7 km/h 59.4% 0 mm 53 W/m2
18:09 31.1 °C 22.3 °C 1013.4 hPa South 0.6 km/h 9.7 km/h 60% 0 mm 51 W/m2
18:14 30.8 °C 22.3 °C 1013.4 hPa SSW 2.1 km/h 9.7 km/h 60.4% 0 mm 49 W/m2
18:19 30.7 °C 22.3 °C 1013.4 hPa South 1.3 km/h 9.7 km/h 61.1% 0 mm 49 W/m2
18:24 30.4 °C 22.3 °C 1013.4 hPa South 1.6 km/h 9.7 km/h 62% 0 mm 47 W/m2
18:29 30.2 °C 22.1 °C 1013.4 hPa South 2.4 km/h 11.3 km/h 62.2% 0 mm 46 W/m2
18:34 29.9 °C 22 °C 1013.4 hPa South 0.8 km/h 11.3 km/h 62.7% 0 mm 46 W/m2
18:39 29.7 °C 22 °C 1013.4 hPa South 1 km/h 11.3 km/h 63.4% 0 mm 44 W/m2
18:44 29.5 °C 22.2 °C 1013.8 hPa SSW 0.2 km/h 11.3 km/h 64.6% 0 mm 42 W/m2
18:49 29.3 °C 22.1 °C 1013.8 hPa SSW 0.5 km/h 11.3 km/h 65% 0 mm 40 W/m2
18:54 29.2 °C 22 °C 1013.8 hPa South 0.5 km/h 11.3 km/h 65.2% 0 mm 39 W/m2
18:59 29.1 °C 22.1 °C 1013.4 hPa South 0.8 km/h 11.3 km/h 66% 0 mm 37 W/m2
19:04 28.9 °C 21.9 °C 1013.4 hPa South 0.3 km/h 11.3 km/h 66.2% 0 mm 35 W/m2
19:09 28.8 °C 22.1 °C 1013.8 hPa South 0.3 km/h 4.8 km/h 67% 0 mm 32 W/m2
19:14 28.7 °C 22.2 °C 1013.8 hPa Calm   4.8 km/h 67.8% 0 mm 30 W/m2
19:19 28.6 °C 22.1 °C 1013.8 hPa Calm   4.8 km/h 68% 0 mm 28 W/m2
19:24 28.4 °C 22.2 °C 1013.8 hPa Calm   4.8 km/h 68.9% 0 mm 26 W/m2
19:29 28.3 °C 22.1 °C 1013.8 hPa South 0.2 km/h 4.8 km/h 69% 0 mm 23 W/m2
19:34 28.2 °C 21.9 °C 1013.8 hPa Calm   4.8 km/h 69% 0 mm 21 W/m2
19:39 28.1 °C 22 °C 1013.8 hPa Calm     69.7% 0 mm 19 W/m2
19:44 27.9 °C 21.9 °C 1013.4 hPa South 0.2 km/h 6.4 km/h 70% 0 mm 16 W/m2
19:49 27.7 °C 21.8 °C 1013.4 hPa Calm   6.4 km/h 70.3% 0 mm 12 W/m2
19:54 27.5 °C 21.8 °C 1013.1 hPa South 0.6 km/h 6.4 km/h 71% 0 mm 9 W/m2
19:59 27.3 °C 21.6 °C 1013.1 hPa South 0.2 km/h 6.4 km/h 71% 0 mm 5 W/m2
20:09 27 °C 21.6 °C 1013.4 hPa Calm     72% 0 mm 0 W/m2
20:14 26.9 °C 21.6 °C 1013.4 hPa Calm   1.6 km/h 72.5% 0 mm 0 W/m2
20:19 26.8 °C 21.5 °C 1013.4 hPa Calm   1.6 km/h 73% 0 mm 0 W/m2
20:24 26.6 °C 21.4 °C 1013.4 hPa Calm   1.6 km/h 73% 0 mm 0 W/m2
20:29 26.6 °C 21.5 °C 1013.4 hPa Calm   1.6 km/h 73.9% 0 mm 0 W/m2
20:34 26.4 °C 21.4 °C 1013.4 hPa South 0.3 km/h 6.4 km/h 74% 0 mm 0 W/m2
20:39 26.3 °C 21.3 °C 1013.4 hPa Calm   6.4 km/h 74% 0 mm 0 W/m2
20:44 26.2 °C 21.2 °C 1013.4 hPa South 0.2 km/h 6.4 km/h 74% 0 mm 0 W/m2
20:49 26.1 °C 21.2 °C 1013.4 hPa South 0.3 km/h 6.4 km/h 74.2% 0 mm 0 W/m2
20:54 26 °C 21.2 °C 1013.8 hPa Calm   6.4 km/h 74.8% 0 mm 0 W/m2
20:59 25.9 °C 21.2 °C 1013.4 hPa Calm   6.4 km/h 75% 0 mm 0 W/m2
21:04 25.8 °C 21.1 °C 1013.4 hPa South 0.8 km/h 8 km/h 75% 0 mm 0 W/m2
21:09 25.8 °C 21 °C 1013.8 hPa Calm   8 km/h 75% 0 mm 0 W/m2
21:14 25.7 °C 20.9 °C 1013.8 hPa Calm   8 km/h 75.3% 0 mm 0 W/m2
21:19 25.5 °C 21 °C 1013.8 hPa SSW 0.2 km/h 8 km/h 76% 0 mm 0 W/m2
21:24 25.4 °C 20.8 °C 1013.8 hPa Calm   8 km/h 76% 0 mm 0 W/m2
21:29 25.2 °C 20.8 °C 1014.1 hPa Calm   8 km/h 76.7% 0 mm 0 W/m2
21:34 25.1 °C 20.8 °C 1014.1 hPa Calm   8 km/h 77% 0 mm 0 W/m2
21:39 25 °C 20.7 °C 1014.1 hPa Calm     77% 0 mm 0 W/m2
21:44 24.9 °C 20.6 °C 1014.4 hPa Calm     77% 0 mm 0 W/m2
21:49 24.8 °C 20.7 °C 1014.4 hPa Calm     77.9% 0 mm 0 W/m2
21:54 24.7 °C 20.6 °C 1014.4 hPa Calm     78% 0 mm 0 W/m2
21:59 24.6 °C 20.6 °C 1014.8 hPa Calm     78.5% 0 mm 0 W/m2
22:04 24.4 °C 20.6 °C 1014.8 hPa Calm     79% 0 mm 0 W/m2
22:09 24.3 °C 20.5 °C 1014.8 hPa Calm     79.3% 0 mm 0 W/m2
22:14 24.2 °C 20.6 °C 1014.8 hPa Calm     80% 0 mm 0 W/m2
22:19 24.2 °C 20.5 °C 1014.8 hPa Calm     80% 0 mm 0 W/m2
22:24 24.1 °C 20.4 °C 1014.8 hPa Calm     80% 0 mm 0 W/m2
22:29 23.9 °C 20.3 °C 1015.1 hPa Calm     80% 0 mm 0 W/m2
22:34 23.9 °C 20.3 °C 1015.1 hPa Calm     80.6% 0 mm 0 W/m2
22:39 23.8 °C 20.3 °C 1015.1 hPa Calm     81% 0 mm 0 W/m2
22:44 23.7 °C 20.3 °C 1015.1 hPa Calm     81.6% 0 mm 0 W/m2
22:49 23.6 °C 20.4 °C 1015.1 hPa Calm     82% 0 mm 0 W/m2
22:54 23.6 °C 20.3 °C 1015.1 hPa Calm     82% 0 mm 0 W/m2
22:59 23.5 °C 20.2 °C 1015.1 hPa Calm     82% 0 mm 0 W/m2
23:04 23.4 °C 20.2 °C 1015.5 hPa Calm     82% 0 mm 0 W/m2
23:08 23.3 °C 20.2 °C 1015.5 hPa Calm     82.3% 0 mm 0 W/m2
Hartford County Weather
Compliments of Weather Underground - 2 mb